North Wilkesboro, NC

8:37 AM EST on December 11, 2017 (GMT -0500)
Wilkes County

Weather History for KUKF - March, 2014

Change the Weather History Date:

Friday, March 7, 2014

  Actual Average Record
Temperature  
Mean Temperature 38 °F -  
Max Temperature 44 °F 57 °F 78 °F (2009)
Min Temperature 32 °F 31 °F 12 °F (1960)
Degree Days  
Heating Degree Days 27    
Moisture  
Dew Point 33 °F    
Average Humidity 92    
Maximum Humidity 100    
Minimum Humidity 66    
Precipitation  
Precipitation 1.04 in - - ()
Sea Level Pressure  
Sea Level Pressure 30.05 in    
Wind  
Wind Speed 5 mph (NNE)    
Max Wind Speed 12 mph    
Max Gust Speed 21 mph    
Visibility 6 miles    
Events Rain , Snow    
Averages and records for this station are not official NWS values.
T = Trace of Precipitation, MM = Missing Value Source: NWS Daily Summary

Daily Weather History Graph

Daily Weather History Graph

Search for Another Location

Airport or City:

Trip Planner

Search our weather history database for the weather conditions in past years. The results will help you decide how hot, cold, wet, or windy it might be!

Date:

Astronomy

Mar. 07, 2014 Rise Set
Actual Time 6:46 AM EST 6:24 PM EST
Civil Twilight 6:20 AM EST 6:50 PM EST
Nautical Twilight 5:51 AM EST 7:20 PM EST
Astronomical Twilight 5:21 AM EST 7:50 PM EST
Moon 10:49 AM EST (3/7) 12:17 AM EST (3/7)
Length of Visible Light 12h 29m
Length of Day
11h 38m
Waxing Crescent, 42% of the Moon is Illuminated
Mar 7
Waxing Crescent
Mar 8
First Quarter
Mar 16
Full
Mar 23
Last Quarter
Mar 30
New

Hourly Weather History & Observations

Time (EST) Temp. Windchill Dew Point Humidity Pressure Visibility Wind Dir Wind Speed Gust Speed Precip Events Conditions
12:15 AM 32.0 °F 23.0 °F 30.2 °F 93% 30.15 in 10.0 mi ENE 11.5 mph 20.7 mph N/A Snow Light Snow
12:35 AM 32.0 °F 24.2 °F 30.2 °F 93% 30.15 in 10.0 mi NE 9.2 mph 17.3 mph N/A Rain Light Rain
12:55 AM 32.0 °F 23.6 °F 30.2 °F 93% 30.13 in 10.0 mi ENE 10.4 mph 17.3 mph N/A Snow Light Snow
1:15 AM 32.0 °F 24.2 °F 30.2 °F 93% 30.14 in 10.0 mi ENE 9.2 mph 17.3 mph N/A Snow Light Snow
1:35 AM 32.0 °F 23.0 °F 32.0 °F 100% 30.13 in 4.0 mi NE 11.5 mph 18.4 mph N/A Snow Light Snow
1:55 AM 32.0 °F 24.2 °F 32.0 °F 100% 30.12 in 4.0 mi NE 9.2 mph - N/A Snow Light Snow
2:15 AM 32.0 °F 24.8 °F 32.0 °F 100% 30.11 in 4.0 mi NE 8.1 mph - N/A Snow Light Snow
2:35 AM 32.0 °F 26.4 °F 32.0 °F 100% 30.10 in 1.5 mi NE 5.8 mph - N/A Snow Light Snow
2:55 AM 32.0 °F 28.7 °F 32.0 °F 100% 30.09 in 1.2 mi NE 3.5 mph - N/A Snow Light Snow
3:15 AM 32.0 °F - 32.0 °F 100% 30.10 in 1.2 mi Calm Calm - N/A Snow Light Snow
3:35 AM 32.0 °F - 32.0 °F 100% 30.10 in 1.2 mi Calm Calm - N/A Snow Light Snow
3:55 AM 32.0 °F 28.7 °F 32.0 °F 100% 30.09 in 1.5 mi North 3.5 mph - N/A Snow Light Snow
4:20 AM 32.0 °F 26.4 °F 32.0 °F 100% 30.08 in 1.2 mi North 5.8 mph - N/A Snow Light Snow
4:30 AM 32.0 °F 24.8 °F 32.0 °F 100% 30.08 in 1.5 mi North 8.1 mph - N/A Snow Light Snow
4:55 AM 32.0 °F 26.4 °F 32.0 °F 100% 30.07 in 1.8 mi North 5.8 mph - N/A Snow Light Snow
5:15 AM 32.0 °F 27.5 °F 32.0 °F 100% 30.07 in 2.0 mi North 4.6 mph - N/A Snow Light Snow
5:35 AM 32.0 °F - 32.0 °F 100% 30.07 in 2.5 mi Calm Calm - N/A Snow Light Snow
5:55 AM 32.0 °F 28.7 °F 32.0 °F 100% 30.08 in 1.8 mi NNE 3.5 mph - N/A Snow Light Snow
6:15 AM 32.0 °F 28.7 °F 32.0 °F 100% 30.08 in 2.5 mi North 3.5 mph - N/A Snow Light Snow
6:35 AM 32.0 °F 27.5 °F 32.0 °F 100% 30.07 in 3.0 mi North 4.6 mph - N/A Snow Light Snow
6:55 AM 32.0 °F 27.5 °F 32.0 °F 100% 30.07 in 3.0 mi North 4.6 mph - N/A Snow Light Snow
7:15 AM 32.0 °F - 32.0 °F 100% 30.07 in 2.0 mi Calm Calm - N/A Snow Light Snow
7:35 AM 32.0 °F - 32.0 °F 100% 30.07 in 3.0 mi Calm Calm - N/A Snow Light Snow
7:55 AM 32.0 °F - 32.0 °F 100% 30.08 in 5.0 mi Calm Calm - N/A Rain Light Rain
8:15 AM 32.0 °F - 32.0 °F 100% 30.09 in 3.0 mi Calm Calm - N/A Rain Light Rain
8:35 AM 32.0 °F - 32.0 °F 100% 30.09 in 2.0 mi Calm Calm - N/A Rain Light Rain
8:55 AM 32.0 °F - 32.0 °F 100% 30.09 in 1.8 mi Calm Calm - N/A Rain Light Rain
9:15 AM 32.0 °F - 32.0 °F 100% 30.10 in 3.0 mi Calm Calm - 0.01 in Rain Light Rain
9:35 AM 32.0 °F - 32.0 °F 100% 30.10 in 2.5 mi Calm Calm - 0.01 in Rain Light Rain
9:55 AM 32.0 °F - 32.0 °F 100% 30.10 in 1.8 mi Calm Calm - 0.01 in Rain Light Rain
10:15 AM - - - N/A% 30.10 in - North - - N/A   Unknown
10:35 AM 33.8 °F - 33.8 °F 100% 30.09 in 2.0 mi Calm Calm - N/A Rain Light Rain
10:55 AM 33.8 °F - 33.8 °F 100% 30.09 in 0.5 mi Calm Calm - N/A   Drizzle
11:15 AM 33.8 °F - 33.8 °F 100% 30.09 in 2.0 mi Calm Calm - N/A   Drizzle
11:35 AM 33.8 °F - 33.8 °F 100% 30.09 in 2.0 mi Calm Calm - N/A   Drizzle
12:00 PM 35.6 °F - 35.6 °F 100% 30.08 in 3.0 mi Calm Calm - N/A   Drizzle
12:15 PM 35.6 °F - 35.6 °F 100% 30.08 in 4.0 mi Calm Calm - 0.06 in Rain Rain
12:35 PM 35.6 °F - 35.6 °F 100% 30.07 in 7.0 mi Calm Calm - 0.18 in   Drizzle
12:55 PM 37.4 °F 32.8 °F 35.6 °F 93% 30.06 in 10.0 mi North 5.8 mph - 0.39 in Rain Rain
1:15 PM 37.4 °F 32.8 °F 35.6 °F 93% 30.05 in 10.0 mi NNE 5.8 mph - 0.12 in   Light Drizzle
1:35 PM 39.2 °F 35.9 °F 35.6 °F 87% 30.04 in 10.0 mi NNE 4.6 mph - 0.33 in   Light Drizzle
1:55 PM 41.0 °F 38.0 °F 35.6 °F 81% 30.03 in 10.0 mi North 4.6 mph - 0.51 in   Overcast
2:15 PM 41.0 °F 35.8 °F 35.6 °F 81% 30.03 in 10.0 mi NNE 8.1 mph - 0.09 in   Overcast
2:35 PM 42.8 °F 39.3 °F 33.8 °F 70% 30.03 in 10.0 mi North 5.8 mph - 0.12 in   Overcast
2:55 PM 42.8 °F 39.3 °F 33.8 °F 70% 30.02 in 10.0 mi NNE 5.8 mph - 0.12 in   Overcast
3:15 PM 42.8 °F 40.1 °F 33.8 °F 70% 30.02 in 10.0 mi North 4.6 mph - N/A   Overcast
3:35 PM 42.8 °F 38.6 °F 33.8 °F 70% 30.02 in 10.0 mi NNE 6.9 mph - N/A   Overcast
3:55 PM 42.8 °F 40.1 °F 33.8 °F 70% 30.01 in 10.0 mi NNE 4.6 mph - N/A   Overcast
4:15 PM 42.8 °F 40.1 °F 33.8 °F 70% 30.01 in 10.0 mi ENE 4.6 mph - N/A   Overcast
4:35 PM 44.6 °F 41.4 °F 33.8 °F 66% 30.00 in 10.0 mi ENE 5.8 mph - N/A   Overcast
4:55 PM 44.6 °F 41.4 °F 33.8 °F 66% 29.99 in 10.0 mi NE 5.8 mph - 0.01 in   Scattered Clouds
5:15 PM 44.6 °F - 33.8 °F 66% 29.98 in 10.0 mi Calm Calm - N/A   Clear
5:35 PM 44.6 °F 43.1 °F 33.8 °F 66% 29.99 in 10.0 mi NE 3.5 mph - N/A   Clear
5:55 PM 44.6 °F - 33.8 °F 66% 29.99 in 10.0 mi Calm Calm - N/A   Clear
6:15 PM 42.8 °F 41.1 °F 33.8 °F 70% 29.98 in 10.0 mi East 3.5 mph - N/A   Scattered Clouds
6:35 PM 41.0 °F - 33.8 °F 76% 29.99 in 10.0 mi Calm Calm - N/A   Clear
6:55 PM 41.0 °F - 33.8 °F 76% 30.00 in 10.0 mi Calm Calm - N/A   Clear
7:15 PM 37.4 °F - 33.8 °F 87% 30.00 in 10.0 mi Calm Calm - N/A   Clear
7:35 PM 37.4 °F - 33.8 °F 87% 30.00 in 10.0 mi Calm Calm - N/A   Clear
7:55 PM 35.6 °F - 33.8 °F 93% 30.00 in 10.0 mi Calm Calm - N/A   Clear
8:15 PM 33.8 °F - 33.8 °F 100% 30.00 in 10.0 mi Calm Calm - N/A   Clear
8:35 PM 35.6 °F - 33.8 °F 93% 30.01 in 10.0 mi Calm Calm - N/A   Clear
8:55 PM 35.6 °F - 33.8 °F 93% 30.01 in 10.0 mi Calm Calm - N/A   Clear
9:15 PM 33.8 °F 30.8 °F 33.8 °F 100% 30.01 in 10.0 mi WSW 3.5 mph - N/A   Clear
9:35 PM 33.8 °F 30.8 °F 32.0 °F 93% 30.01 in 10.0 mi West 3.5 mph - N/A   Clear
9:55 PM 33.8 °F 28.6 °F 33.8 °F 100% 30.01 in 10.0 mi West 5.8 mph - N/A   Clear
10:15 PM 35.6 °F 29.9 °F 33.8 °F 93% 30.01 in 10.0 mi West 6.9 mph - N/A   Clear
10:35 PM 33.8 °F - 32.0 °F 93% 30.01 in 10.0 mi Calm Calm - N/A   Clear
10:55 PM 32.0 °F 28.7 °F 32.0 °F 100% 30.01 in 10.0 mi West 3.5 mph - N/A   Clear
11:15 PM 33.8 °F 30.8 °F 33.8 °F 100% 30.01 in 10.0 mi WSW 3.5 mph - N/A   Clear
11:35 PM 33.8 °F 30.8 °F 33.8 °F 100% 30.00 in 10.0 mi WSW 3.5 mph - N/A   Clear
11:55 PM 33.8 °F 30.8 °F 33.8 °F 100% 29.99 in 10.0 mi WSW 3.5 mph - N/A   Clear